Amsterdam, Netherlands

10:19 AM CET on February 22, 2017 (GMT +0100)
Schiphol

Weather History for EHAM - March, 2014

Change the Weather History Date:

Wednesday, March 26, 2014

  Actual Average Record
Temperature  
Mean Temperature 38 °F -  
Max Temperature 47 °F 53 °F 62 °F (2007)
Min Temperature 30 °F 39 °F 26 °F (2013)
Degree Days  
Heating Degree Days 26    
Moisture  
Dew Point 35 °F    
Average Humidity 79    
Maximum Humidity 100    
Minimum Humidity 49    
Precipitation  
Precipitation 0.01 in - - ()
Sea Level Pressure  
Sea Level Pressure 29.96 in    
Wind  
Wind Speed 5 mph ()    
Max Wind Speed 13 mph    
Max Gust Speed 20 mph    
Visibility 8.0 miles    
Events Rain    
Averages and records for this station are not official NWS values.
T = Trace of Precipitation, MM = Missing Value Source: Averaged Metar Reports

Daily Weather History Graph

Daily Weather History Graph

Search for Another Location

Airport or City:

Trip Planner

Search our weather history database for the weather conditions in past years. The results will help you decide how hot, cold, wet, or windy it might be!

Date:

Astronomy

Mar. 26, 2014 Rise Set
Actual Time 6:29 AM CET 7:04 PM CET
Civil Twilight 5:55 AM CET 7:38 PM CET
Nautical Twilight 5:15 AM CET 8:19 PM CET
Astronomical Twilight 4:32 AM CET 9:02 PM CET
Moon 4:00 AM CET (3/26) 1:53 PM CET (3/26)
Length of Visible Light 13h 42m
Length of Day
12h 34m
Waning Crescent, 24% of the Moon is Illuminated
Mar 26
Waning Crescent
Mar 30
New
Apr 7
First Quarter
Apr 15
Full
Apr 22
Last Quarter

Hourly Weather History & Observations

Time (CET) Temp. Windchill Dew Point Humidity Pressure Visibility Wind Dir Wind Speed Gust Speed Precip Events Conditions
12:00 AM 39 °F - 36 °F 83% 29.96 in 19 mi North 4.5 mph - -  
12:25 AM 37.4 °F 32.8 °F 35.6 °F 93% 29.95 in - North 5.8 mph - N/A   Clear
12:55 AM 39.2 °F 35.0 °F 35.6 °F 87% 29.95 in - NNE 5.8 mph - N/A   Clear
1:00 AM 38 °F - 36 °F 87% 29.97 in 12 mi NNE 4.5 mph - -   Partly Cloudy
1:25 AM 37.4 °F 33.8 °F 35.6 °F 93% 29.95 in - North 4.6 mph - N/A   Clear
1:55 AM 37.4 °F 32.8 °F 35.6 °F 93% 29.95 in - North 5.8 mph - N/A   Clear
2:00 AM 37 °F - 35 °F 89% 29.97 in 10 mi North 4.5 mph - -  
2:25 AM 35.6 °F 31.7 °F 33.8 °F 93% 29.95 in - North 4.6 mph - N/A   Clear
2:55 AM 32.0 °F 26.4 °F 32.0 °F 100% 29.95 in - NW 5.8 mph - N/A   Clear
3:00 AM 32 °F - 31 °F 97% 29.97 in 5 mi NW 4.5 mph - -   Mist
3:25 AM 32.0 °F 27.5 °F 30.2 °F 93% 29.95 in - NW 4.6 mph - N/A   Clear
3:55 AM 32.0 °F - 32.0 °F 100% 29.95 in - NNW 2.3 mph - N/A   Clear
4:00 AM 33 °F - 32 °F 96% 29.96 in 5 mi NW 2.2 mph - -   Mist
4:25 AM 33.8 °F 30.8 °F 33.8 °F 100% 29.95 in - NW 3.5 mph - N/A   Clear
4:55 AM 33.8 °F 29.6 °F 33.8 °F 100% 29.95 in - NNW 4.6 mph - N/A   Clear
5:00 AM 34 °F - 33 °F 97% 29.96 in 4 mi NW 4.5 mph - -   Mist
5:25 AM 35.6 °F 32.8 °F 33.8 °F 93% 29.95 in - NW 3.5 mph - N/A   Clear
5:55 AM 35.6 °F 32.8 °F 35.6 °F 100% 29.95 in 6.2 mi NW 3.5 mph - N/A   Partly Cloudy
6:00 AM 36 °F - 34 °F 91% 29.96 in 8 mi NW 4.5 mph - -   Overcast
6:25 AM 35.6 °F 32.8 °F 33.8 °F 93% 29.95 in 6.2 mi NW 3.5 mph - N/A   Partly Cloudy
6:55 AM 35.6 °F 32.8 °F 33.8 °F 93% 29.95 in 6.2 mi WNW 3.5 mph - N/A   Partly Cloudy
7:00 AM 38 °F - 35 °F 85% 29.96 in 9 mi NNW 8.9 mph - -   Partly Cloudy
7:25 AM 41.0 °F 35.2 °F 35.6 °F 81% 29.95 in 6.2 mi North 9.2 mph - N/A   Partly Cloudy
7:55 AM 41.0 °F 35.8 °F 35.6 °F 81% 29.95 in 6.2 mi North 8.1 mph - N/A Rain Light Rain Showers
8:00 AM 41 °F - 35 °F 71% 29.96 in 28 mi North 6.7 mph - -   Partly Cloudy
8:25 AM 41.0 °F - 35.6 °F 81% 29.95 in 6.2 mi NNE 2.3 mph - N/A Rain Light Rain Showers
8:55 AM 42.8 °F 39.3 °F 35.6 °F 76% 29.95 in 6.2 mi NNW 5.8 mph - N/A   Scattered Clouds
9:00 AM 44 °F - 35 °F 63% 29.97 in 25 mi NNW 6.7 mph - - Rain Drizzle
9:25 AM 42.8 °F 38.6 °F 35.6 °F 76% 29.95 in 6.2 mi NW 6.9 mph - N/A   Partly Cloudy
9:55 AM 42.8 °F 38.6 °F 37.4 °F 81% 29.95 in 6.2 mi NW 6.9 mph - N/A   Partly Cloudy
10:00 AM 44 °F - 36 °F 66% 29.98 in 28 mi NW 6.7 mph - -   Partly Cloudy
10:25 AM 44.6 °F 43.1 °F 37.4 °F 76% 29.95 in 6.2 mi Variable 3.5 mph - N/A   Partly Cloudy
10:55 AM 44.6 °F 41.4 °F 33.8 °F 66% 29.95 in 6.2 mi NNW 5.8 mph - N/A Rain Light Rain Showers
11:00 AM 44 °F - 31 °F 49% 29.97 in 19 mi NW 6.7 mph - - Rain Light Rain Showers
11:25 AM 41.0 °F 33.9 °F 35.6 °F 81% 29.98 in 6.2 mi North 12.7 mph - N/A Rain Light Rain Showers
11:55 AM 41.0 °F 34.3 °F 37.4 °F 87% 29.95 in 6.2 mi NNE 11.5 mph - N/A   Partly Cloudy
12:00 PM 41 °F - 36 °F 77% 29.98 in 22 mi NNE 8.9 mph - - Rain Light Rain Showers
12:25 PM 44.6 °F 41.4 °F 39.2 °F 81% 29.98 in 6.2 mi East 5.8 mph - N/A   Scattered Clouds
12:55 PM 42.8 °F 40.1 °F 37.4 °F 81% 29.95 in 6.2 mi SE 4.6 mph - N/A Rain Light Rain Showers
1:00 PM 43 °F - 36 °F 69% 29.98 in 28 mi SSE 6.7 mph - - Rain Rain
1:25 PM 44.6 °F 39.7 °F 37.4 °F 76% 29.95 in 6.2 mi SSE 9.2 mph - N/A   Scattered Clouds
1:55 PM 44.6 °F 40.7 °F 35.6 °F 71% 29.95 in 6.2 mi South 6.9 mph - N/A   Scattered Clouds
2:00 PM 44 °F - 36 °F 65% 29.97 in 19 mi South 6.7 mph - -   Scattered Clouds
2:25 PM 44.6 °F 40.7 °F 35.6 °F 71% 29.95 in 6.2 mi South 6.9 mph - N/A   Partly Cloudy
2:55 PM 44.6 °F 41.4 °F 35.6 °F 71% 29.95 in 6.2 mi SSW 5.8 mph 19.6 mph N/A   Partly Cloudy
3:00 PM 45 °F - 36 °F 60% 29.96 in 22 mi SW 4.5 mph - -   Mostly Cloudy
3:25 PM 46.4 °F 44.3 °F 35.6 °F 66% 29.95 in 6.2 mi WSW 4.6 mph - N/A   Partly Cloudy
3:55 PM 46.4 °F 43.5 °F 35.6 °F 66% 29.95 in 6.2 mi West 5.8 mph - N/A   Partly Cloudy
4:00 PM 48 °F - 35 °F 51% 29.95 in 19 mi West 6.7 mph - -   Scattered Clouds
4:25 PM 44.6 °F 41.4 °F 35.6 °F 71% 29.92 in 6.2 mi SW 5.8 mph - N/A   Partly Cloudy
4:55 PM 46.4 °F 45.2 °F 35.6 °F 66% 29.92 in 6.2 mi West 3.5 mph - N/A   Partly Cloudy
5:00 PM 47 °F - 36 °F 54% 29.95 in 19 mi West 4.5 mph - -  
5:25 PM 44.6 °F - 35.6 °F 71% 29.95 in 6.2 mi Variable 2.3 mph - N/A   Partly Cloudy
5:55 PM 46.4 °F - 35.6 °F 66% 29.95 in 6.2 mi SW 2.3 mph - N/A   Partly Cloudy
6:00 PM 46 °F - 36 °F 59% 29.96 in 22 mi Calm Calm - -  
6:25 PM 44.6 °F 41.4 °F 35.6 °F 71% 29.95 in 6.2 mi SW 5.8 mph - N/A   Partly Cloudy
6:55 PM 42.8 °F 41.1 °F 33.8 °F 70% 29.95 in 6.2 mi SSW 3.5 mph - N/A   Partly Cloudy
7:00 PM 43 °F - 34 °F 60% 29.97 in 28 mi SSW 4.5 mph - -   Partly Cloudy
7:25 PM 41.0 °F 39.0 °F 33.8 °F 76% 29.98 in 6.2 mi SSW 3.5 mph - N/A   Partly Cloudy
7:55 PM 41.0 °F - 33.8 °F 76% 29.98 in - ESE 1.2 mph - N/A   Clear
8:00 PM 42 °F - 34 °F 63% 30.00 in 28 mi East 2.2 mph - -  
8:25 PM 41.0 °F - 33.8 °F 76% 29.98 in - East 2.3 mph - N/A   Clear
8:55 PM 39.2 °F 37.0 °F 33.8 °F 81% 30.01 in - NE 3.5 mph - N/A   Clear
9:00 PM 39 °F - 34 °F 76% 30.01 in 28 mi ENE 2.2 mph - -   Scattered Clouds
9:25 PM 39.2 °F 35.9 °F 33.8 °F 81% 30.01 in - ENE 4.6 mph - N/A   Clear
9:55 PM 39.2 °F 35.9 °F 33.8 °F 81% 30.01 in - ENE 4.6 mph - N/A   Clear
10:00 PM 39 °F - 34 °F 74% 30.01 in 28 mi ENE 4.5 mph - -   Scattered Clouds
10:25 PM 39.2 °F 35.9 °F 33.8 °F 81% 30.01 in - ENE 4.6 mph - N/A   Clear
10:55 PM 35.6 °F 29.9 °F 32.0 °F 87% 30.01 in - East 6.9 mph - N/A   Clear
11:00 PM 36 °F - 31 °F 77% 30.01 in 28 mi East 6.7 mph - -  
11:25 PM 35.6 °F 29.2 °F 32.0 °F 87% 29.98 in - ENE 8.1 mph - N/A   Clear
11:55 PM 37.4 °F 30.8 °F 33.8 °F 87% 30.01 in - East 9.2 mph - N/A   Clear